This is the latest recevied weather packets stored in our database for station/object K5NAN. If no packets are shown the sender has not sent any weather packets the latest 10 day(s).
| Time | Temp. | Humidity | Pressure | Rain* | Wind** | Luminosity | Snow |
|---|---|---|---|---|---|---|---|
| 1778078491 | 12.22° C | 85% | 1013 hPa | 0 mm | - | 121 W/m² | - |
| 1778078190 | 11.67° C | 85% | 1012.9 hPa | 0 mm | - | 133 W/m² | - |
| 1778077887 | 11.67° C | 85% | 1013.1 hPa | 0 mm | - | 66 W/m² | - |
| 1778077586 | 11.67° C | 85% | 1013 hPa | 0 mm | - | 56 W/m² | - |
| 1778077283 | 11.67° C | 85% | 1012.5 hPa | 0 mm | - | 65 W/m² | - |
| 1778076981 | 11.67° C | 85% | 1012.4 hPa | 0 mm | - | 73 W/m² | - |
| 1778076679 | 11.67° C | 85% | 1012.5 hPa | 0 mm | - | 72 W/m² | - |
| 1778076376 | 11.67° C | 85% | 1012.2 hPa | 0 mm | - | 68 W/m² | - |
| 1778076073 | 11.67° C | 85% | 1012.5 hPa | 0 mm | - | 57 W/m² | - |
| 1778075770 | 11.67° C | 86% | 1012.2 hPa | 0 mm | - | 65 W/m² | - |
| 1778075466 | 11.67° C | 86% | 1012.2 hPa | 0 mm | - | 62 W/m² | - |
| 1778075163 | 11.11° C | 86% | 1012.2 hPa | 0 mm | - | 56 W/m² | - |
| 1778074858 | 11.11° C | 86% | 1012.1 hPa | 0 mm | - | 50 W/m² | - |
| 1778074556 | 11.11° C | 86% | 1012.1 hPa | 0 mm | - | 38 W/m² | - |
| 1778074253 | 11.11° C | 86% | 1012 hPa | 0 mm | - | 35 W/m² | - |
| 1778073950 | 11.11° C | 86% | 1012.1 hPa | 0 mm | - | 35 W/m² | - |
| 1778073647 | 11.11° C | 86% | 1012.1 hPa | 0 mm | - | 33 W/m² | - |
| 1778073344 | 11.11° C | 87% | 1012.1 hPa | 0 mm | - | 36 W/m² | - |
| 1778073040 | 11.11° C | 87% | 1012.1 hPa | 0 mm | - | 29 W/m² | - |
| 1778072738 | 11.11° C | 87% | 1011.8 hPa | 0 mm | - | 28 W/m² | - |
| 1778072435 | 11.11° C | 87% | 1012.1 hPa | 0 mm | - | 30 W/m² | - |
| 1778072133 | 11.11° C | 87% | 1011.6 hPa | 0 mm | - | 30 W/m² | - |
| 1778071831 | 11.11° C | 87% | 1011.7 hPa | 0 mm | - | 23 W/m² | - |
| 1778071528 | 11.11° C | 88% | 1011.9 hPa | 0 mm | - | 19 W/m² | - |
| 1778071226 | 11.11° C | 88% | 1011.8 hPa | 0 mm | - | 22 W/m² | - |
* Rain latest hour (hover to see other rain measurements)
** Current wind speed in m/s (hover to see current wind gust speed)